Tracking 29892 objects as of 21-Nov-2024
HD Live streaming from Space Station
objects crossing your sky now

ONEWEB-0543

Track ONEWEB-0543 now!
10-day predictions
ONEWEB-0543 is classified as:


NORAD ID: 55143
Int'l Code: 2023-004D
Perigee: 1,195.5 km
Apogee: 1,198.2 km
Inclination: 87.9 °
Period: 109.2 minutes
Semi major axis: 7567 km
RCS: Unknown
Launch date: January 10, 2023
Source: United Kingdom (UK)
Launch site: AIR FORCE WESTERN TEST RANGE (AFWTR)
Your satellite tracking list
Your tracking list is empty




NASA's NSSDC Master Catalog

Two Line Element Set (TLE):
1 55143U 23004D   24325.31028199  .00000186  00000-0  43984-3 0  9992
2 55143  87.9095  89.7323 0001775  89.0037 271.1299 13.18690858 94066
Source of the keplerian elements: AFSPC